TimeCST,TemperatureF,Dew PointF,Humidity,Sea Level PressureIn,VisibilityMPH,Wind Direction,Wind SpeedMPH,Gust SpeedMPH,PrecipitationIn,Events,Conditions,WindDirDegrees,DateUTC
12:53 AM,59.0,54.0,83,29.84,10.0,South,19.6,-,N/A,,Partly Cloudy,170,2013-11-21 06:53:00
1:53 AM,57.9,54.0,87,29.84,10.0,South,15.0,-,N/A,,Clear,170,2013-11-21 07:53:00
2:53 AM,57.9,55.0,90,29.84,10.0,South,16.1,-,N/A,,Partly Cloudy,170,2013-11-21 08:53:00
3:26 AM,59.0,55.4,88,29.88,10.0,South,13.8,-,N/A,,Mostly Cloudy,180,2013-11-21 09:26:00
3:53 AM,59.0,55.9,90,29.84,10.0,South,15.0,-,N/A,,Overcast,190,2013-11-21 09:53:00
4:53 AM,59.0,55.9,90,29.84,10.0,South,15.0,-,N/A,,Mostly Cloudy,190,2013-11-21 10:53:00
5:23 AM,57.2,55.4,94,29.88,10.0,South,15.0,-,N/A,,Mostly Cloudy,190,2013-11-21 11:23:00
5:53 AM,57.9,55.9,93,29.86,9.0,South,16.1,-,N/A,,Mostly Cloudy,190,2013-11-21 11:53:00
6:20 AM,57.2,55.4,94,29.90,9.0,South,15.0,-,N/A,,Scattered Clouds,190,2013-11-21 12:20:00
6:53 AM,57.9,57.0,97,29.89,8.0,South,12.7,-,N/A,,Partly Cloudy,190,2013-11-21 12:53:00
7:53 AM,57.9,57.0,97,29.91,5.0,SSW,11.5,-,N/A,,Overcast,200,2013-11-21 13:53:00
8:53 AM,60.1,57.9,93,29.94,7.0,South,12.7,-,N/A,,Clear,190,2013-11-21 14:53:00
9:53 AM,64.0,59.0,84,29.95,10.0,SW,11.5,-,N/A,,Clear,220,2013-11-21 15:53:00
10:53 AM,66.0,53.1,63,29.98,10.0,WSW,15.0,-,N/A,,Clear,250,2013-11-21 16:53:00
11:30 AM,60.8,51.8,72,30.04,10.0,North,26.5,36.8,N/A,,Partly Cloudy,350,2013-11-21 17:30:00
11:43 AM,53.6,46.4,77,30.06,10.0,North,27.6,38.0,N/A,,Mostly Cloudy,360,2013-11-21 17:43:00
11:53 AM,50.0,45.0,83,30.05,10.0,North,25.3,34.5,N/A,,Overcast,360,2013-11-21 17:53:00
12:53 PM,43.0,37.9,82,30.08,10.0,NNW,28.8,34.5,N/A,,Overcast,340,2013-11-21 18:53:00
1:53 PM,39.0,34.0,82,30.12,10.0,North,32.2,39.1,N/A,,Overcast,350,2013-11-21 19:53:00
2:53 PM,36.0,32.0,86,30.16,10.0,North,28.8,38.0,N/A,,Overcast,350,2013-11-21 20:53:00
3:53 PM,35.1,30.0,82,30.19,10.0,North,27.6,36.8,N/A,,Overcast,350,2013-11-21 21:53:00
4:32 PM,33.8,28.4,81,30.22,10.0,North,32.2,38.0,N/A,,Overcast,350,2013-11-21 22:32:00
4:53 PM,33.1,28.0,82,30.24,10.0,North,32.2,40.3,N/A,,Overcast,350,2013-11-21 22:53:00
5:33 PM,32.0,28.4,87,30.24,10.0,North,27.6,36.8,N/A,,Overcast,350,2013-11-21 23:33:00
5:53 PM,30.9,27.0,85,30.26,10.0,North,33.4,40.3,N/A,,Overcast,350,2013-11-21 23:53:00
6:07 PM,30.2,26.6,86,30.26,10.0,North,32.2,41.4,N/A,,Overcast,360,2013-11-22 00:07:00
6:53 PM,30.0,24.1,79,30.30,10.0,North,31.1,41.4,N/A,,Overcast,350,2013-11-22 00:53:00
7:34 PM,30.2,23.0,75,30.32,10.0,North,33.4,41.4,N/A,,Overcast,360,2013-11-22 01:34:00
7:53 PM,30.0,23.0,75,30.35,10.0,North,28.8,40.3,N/A,,Overcast,360,2013-11-22 01:53:00
8:53 PM,28.9,21.0,72,30.37,10.0,North,32.2,40.3,N/A,,Overcast,360,2013-11-22 02:53:00
9:53 PM,28.0,21.9,78,30.40,10.0,North,28.8,36.8,N/A,,Overcast,360,2013-11-22 03:53:00
10:53 PM,28.0,21.0,75,30.43,10.0,North,27.6,36.8,N/A,,Overcast,360,2013-11-22 04:53:00
11:53 PM,28.0,19.0,69,30.47,10.0,North,29.9,40.3,N/A,,Overcast,350,2013-11-22 05:53:00